Regional Weather Roundup
Issued by NWS Kansas City/Pleasant Hill, MO

Home | Current Version | Previous Version | Text Only | Print | Product List | Glossary On
Versions: 1 2 3 4 5 6 7 8 9 10 11 12 13 14 15 16 17 18 19 20 21 22 23 24 25 26 27 28 29 30 31 32 33 34 35 36 37 38 39 40 41 42 43 44 45 46 47 48 49 50
000
ASUS43 KEAX 020811
RWREAX

WEATHER ROUNDUP FOR EASTERN KANSAS AND NORTHWEST MISSOURI
NATIONAL WEATHER SERVICE KANSAS CITY/PLEASANT HILL MO
200 AM CST MON MAR 02 2015

KSZ040-057-103>105-MOZ028-029-037-043-020900-
...KANSAS CITY METROPOLITAN AREA...

CITY           SKY/WX    TMP DP  RH WIND       PRES   REMARKS
K.C. INTL      PTCLDY    23  18  81 SW5       30.50S WCI  17
K.C. DOWNTOWN  PTCLDY    24  20  84 CALM      30.51F
LEES SUMMIT    MOCLDY    23  19  85 CALM      30.50S
OLATHE - IXD   PTCLDY    20  17  88 CALM      30.50F
OLATHE - OJC   PTCLDY    22  19  89 CALM      30.49S
LAWRENCE       PTCLDY    19  16  88 NW5       30.52S WCI  12

$$

MOZ001>008-011>017-020>025-030>033-038>040-044>046-053-054-020900-
...NORTHERN AND CENTRAL MISSOURI...

CITY           SKY/WX    TMP DP  RH WIND       PRES   REMARKS
ST. JOSEPH     PTCLDY    24  21  88 CALM      30.52S
MOSBY          SUNNY     19  19 100 CALM      30.52S
WARRENSBURG    MOCLDY    14  12  92 CALM      30.53R FOG
WHITEMAN AFB   CLEAR     11   8  86 SW2       30.51R
CLINTON        MOCLDY    16  14  93 CALM      30.53R
SEDALIA        PTCLDY    18  14  84 SW5       30.52R FOG     WCI  11
WARSAW         NOT AVBL
MARSHALL       PTCLDY    19  18  93 W3        30.53R FOG
CHILLICOTHE      N/A     22  18  85 CALM      30.53R
MOBERLY        MOCLDY    21  16  79 SW3       30.51S
KIRKSVILLE     CLOUDY    19  17  92 W3        30.50R

$$

MOZ041-047>049-056>058-063>065-088>090-097-020900-
...EASTERN AND SOUTHERN MISSOURI...

CITY           SKY/WX    TMP DP  RH WIND       PRES   REMARKS
ST. LOUIS INTL PTCLDY    17  12  80 CALM      30.52R
SPIRIT OF STL  FAIR      13  10  88 CALM      30.52S FOG
COLUMBIA       PTCLDY    18  16  92 NW5       30.51R FOG     WCI  11
JEFFERSON CITY PTCLDY    14  11  87 CALM      30.54R FOG
MEXICO         PTCLDY   N/A N/A N/A W3        30.51R FOG
HANNIBAL       MOCLDY    21  16  79 W6        30.51R WCI  14
ROLLA          PTCLDY    16  14  92 N6        30.47S WCI   7
LEBANON        PTCLDY    19  18  93 CALM      30.48R FOG
OSAGE BEACH    PTCLDY    16  12  86 CALM      30.51R
SPRINGFIELD    PTCLDY    21  17  84 NE7       30.47R WCI  12
BRANSON        MOCLDY    27  25  93 CALM      30.46S
NEVADA         PTCLDY    18  16  93 CALM      30.53S FOG
JOPLIN         PTCLDY    21  18  88 E3        30.49S FOG
WEST PLAINS    PTCLDY    26  21  81 NE7       30.45S WCI  18

$$

IAZ060-094-KSZ022-034>040-054-083-096-NEZ052-066-093-020900-
...KANSAS...SOUTHEAST NEBRASKA AND IOWA...

CITY           SKY/WX    TMP DP  RH WIND       PRES   REMARKS
TOPEKA         PTCLDY    22  18  85 CALM      30.52S
MANHATTAN      MOCLDY    22  20  92 CALM      30.50S
EMPORIA        PTCLDY    18  16  92 SW3       30.49R
CHANUTE        CLEAR     17  15  92 CALM      30.50S
WICHITA        MOCLDY    20  17  88 CALM      30.47F FOG
OMAHA          CLOUDY    23  16  74 CALM      30.50R
LINCOLN        MOCLDY    26  15  63 N5        30.51R WCI  20
FALLS CITY     CLOUDY    25  20  81 CALM      30.50R
LAMONI         PTCLDY    24  18  77 W5        30.48R WCI  18
DES MOINES     MOCLDY    20  13  74 W3        30.51R

$$



USA.gov is the U.S. government's official web portal to all federal, state and local government web resources and services.